Location: Unspecified
(0.0000°N, 0.0000°E)
Time: 13:38:34
(UTC+00:00)

LightSail 2 - Pass Details

Date: 02 April 2020
Orbit: 693 x 726 km, 24.0° (Epoch: 02 April)

Event Time Altitude Azimuth Distance (km) Brightness Sun altitude
Exits shadow 03:32:04 14° 45° (NE) 1,886 7.8 -37.7°
Drops below altitude 10° 03:32:46 10° 48° (NE) 2,131 8.1 -37.5°
Sets 03:35:16 0° 54° (NE) 3,049 9.1 -36.9°
